Flag for New Caledonia Weather past 2 weeks in Noumea, New Caledonia, New Caledonia

Now
73 °F

Overcast.


Feels Like: 77 °F
Forecast: 64 / 72 °F
Wind: 3 mph from Southwest

Location: La Tontouta Nlle-Caledonie

Current Time: Aug 5, 2015 at 4:29:03 PM

Latest Report: Aug 5, 2015 at 3:30 PM


Visibility: N/A

Pressure: 29.86 "Hg

Humidity: 53%

Dew point: 55 °F

Location of NoumeaLocation

Historic Weather in Noumea — Graph

°F

Noumea temperature yesterday

Maximum temperature yesterday: 77 °F (at 1:00 PM)
Minimum temperature yesterday: 61 °F (at 3:00 AM)
Average temperature yesterday: 68 °F

Past Weeks' High & Low Weather Summary

 TemperatureHumidityPressure
High81 °F (Jul 25, 2:00 PM)100% (Jul 27, 5:00 AM)30.24 "Hg (Jul 27, 5:00 AM)
Low55 °F (Jul 31, 6:30 AM)39% (Aug 3, 12:30 PM)29.86 "Hg (Aug 5, 1:00 PM)
Average67 °F74%30.11 "Hg
* Reported Jul 21 3:00 PM — Aug 5 3:00 PM, Noumea, Weather by CustomWeather, © 2015

Note: Actual official high and low records may vary slightly from our data, if they occured in-between our weather recording intervals... More about our weather records

Advertising

Noumea weather history for previous 24 hours

 ConditionsComfort  
Time TempWeatherWind HumidityBarometerVisibility
3:00 PM
Wed, Aug 5
75 °FOvercast.6 mph50%29.86 "HgN/A
2:00 PM77 °FMore clouds than sun.8 mph47%29.86 "HgN/A
1:30 PM77 °FPassing clouds.8 mph51%29.86 "HgN/A
1:00 PM75 °FPassing clouds.7 mph54%29.86 "HgN/A
12:30 PM75 °FPassing clouds.8 mph54%29.89 "HgN/A
12:00 PM77 °FPassing clouds.3 mph47%29.89 "HgN/A
11:30 AM75 °FPassing clouds.5 mph47%29.89 "HgN/A
11:00 AM75 °FSunny.2 mph50%29.92 "Hg10 mi
10:30 AM73 °FOvercast.2 mph53%29.92 "HgN/A
10:00 AM72 °FOvercast.2 mph65%29.92 "HgN/A
9:30 AM70 °FOvercast.2 mph69%29.95 "HgN/A
9:00 AM68 °FSunny.2 mph73%29.95 "Hg10 mi
8:30 AM66 °FSunny.3 mph78%29.92 "Hg10 mi
8:00 AM64 °FSunny.2 mph83%29.92 "Hg10 mi
7:30 AM63 °FSunny.2 mph88%29.95 "Hg10 mi
7:00 AM61 °FSunny.No wind88%29.95 "Hg10 mi
6:30 AM59 °FSunny.1 mph88%29.95 "Hg10 mi
6:00 AM61 °FSunny.No wind88%29.92 "Hg10 mi
5:30 AM61 °FSunny.2 mph88%29.92 "Hg10 mi
5:00 AM63 °FPassing clouds.5 mph83%29.92 "HgN/A
4:30 AM61 °FClear.2 mph88%29.89 "Hg10 mi
4:00 AM63 °FPassing clouds.5 mph83%29.89 "HgN/A
3:30 AM64 °FClear.3 mph78%29.92 "Hg10 mi
3:00 AM66 °FOvercast.5 mph73%29.92 "HgN/A
2:30 AM66 °FMostly cloudy.5 mph73%29.92 "HgN/A
2:00 AM64 °FOvercast.2 mph78%29.95 "HgN/A
1:30 AM64 °FOvercast.6 mph78%29.95 "HgN/A
1:00 AM64 °FPassing clouds.6 mph78%29.95 "HgN/A
12:30 AM66 °FMostly cloudy.8 mph73%29.95 "HgN/A
12:00 AM66 °FPassing clouds.6 mph73%29.95 "HgN/A
11:30 PM
Tue, Aug 4
66 °FPassing clouds.3 mph68%29.95 "HgN/A
11:00 PM68 °FMostly cloudy.8 mph64%29.98 "HgN/A
10:30 PM66 °FOvercast.5 mph68%29.95 "HgN/A
10:00 PM68 °FPassing clouds.3 mph60%29.95 "HgN/A
9:30 PM68 °FOvercast.5 mph60%29.95 "HgN/A
9:00 PM68 °FPassing clouds.3 mph60%29.95 "HgN/A
8:30 PM66 °FPassing clouds.1 mph68%29.95 "HgN/A
8:00 PM68 °FPassing clouds.No wind60%29.95 "HgN/A
7:30 PM70 °FPassing clouds.No wind60%29.95 "HgN/A
7:00 PM70 °FPassing clouds.No wind53%29.95 "HgN/A
6:30 PM70 °FPassing clouds.3 mph60%29.95 "HgN/A
6:00 PM70 °FPassing clouds.3 mph60%29.95 "HgN/A
5:30 PM70 °FPassing clouds.3 mph64%29.95 "HgN/A
5:00 PM72 °FOvercast.3 mph65%29.95 "HgN/A
4:30 PM72 °FOvercast.7 mph69%29.92 "HgN/A
4:00 PM72 °FMostly cloudy.7 mph65%29.92 "HgN/A
Weather by CustomWeather, © 2015

See weather overviewHow to use our weather pages